Location: Utrecht
(52.0907°N, 5.1214°E)
Time: 19:48:45
(UTC+02:00)

SPROUT - Pass Details

Date: 09 July 2022
Orbit: 588 x 598 km, 97.9° (Epoch: 09 August)

Event Time Altitude Azimuth Distance (km) Brightness Sun altitude
Exits shadow 00:23:49 - 100° (E) 2,702 ? -13.4°
Reaches altitude 10° 00:27:24 10° 64° (ENE) 1,928 ? -13.6°
Maximum altitude 00:28:17 11° 52° (NE) 1,892 ? -13.7°
Drops below altitude 10° 00:29:09 10° 40° (NE) 1,932 ? -13.7°
Sets 00:33:08 0° 2° (N) 2,843 ? -13.9°
